Location: Peterborough
(44.3091°N, 78.3197°W)
Time: 00:48:23
(UTC-04:00)

SR - Pass Details

Date: 22 March 2023
Orbit: 581 x 867 km, 66.7° (Epoch: 02 June)

Event Time Altitude Azimuth Distance (km) Brightness Sun altitude
Rises 03:09:35 0° 176° (S) 3,047 - -39.0°
Reaches altitude 10° 03:12:23 10° 162° (SSE) 2,083 - -38.7°
Maximum altitude 03:15:59 22° 111° (ESE) 1,381 - -38.3°
Exits shadow 03:19:02 12° 64° (ENE) 1,860 ? -37.9°
Drops below altitude 10° 03:19:26 10° 60° (ENE) 1,980 ? -37.9°
Sets 03:22:01 0° 45° (NE) 2,856 ? -37.6°
